Location: Hamilton
(43.2500°N, 79.8330°W)
Time: 21:33:48
(UTC-05:00)

Amateur Radio Satellites - All Passes

Search period start: 22 February 2017 21:03
Search period end: 23 February 2017 21:03
Location: Hamilton, 43.2500°N, 79.8330°W

Satellite Date Start Highest point End Downlink Frequencies (MHz)
Time Altitude Azimuth
ZACube-1 22 Feb 21:13:53 21:17:33 25° 266° (W) 21:21:20 437.345
FO-29 22 Feb 21:15:39 21:17:40 11° 80° (E) 21:19:39 435.910
AAUSAT CUBESAT 2 22 Feb 21:21:08 21:21:30 10° 272° (W) 21:21:53 437.432
YUBILEINY 22 Feb 21:23:20 21:31:48 50° 74° (ENE) 21:40:09 435.215
STRAND 1 22 Feb 21:37:22 21:39:42 13° 303° (WNW) 21:42:02 437.568
DELFI C3 22 Feb 21:41:45 21:45:30 40° 262° (W) 21:49:16 145.870
PRISM 22 Feb 21:43:21 21:47:23 57° 101° (E) 21:51:23 437.425
SO-50 22 Feb 22:05:15 22:08:18 17° 110° (ESE) 22:11:20 436.795
RS-15 22 Feb 22:08:38 22:18:41 28° 349° (N) 22:28:49 29.354- 29.394
ESTCUBE 1 22 Feb 22:09:07 22:12:59 29° 68° (ENE) 22:16:51 437.505/2401.250
UNISAT 6 22 Feb 22:33:53 22:38:38 85° 103° (ESE) 22:43:19 437.425
TIGRISAT 22 Feb 22:35:07 22:39:52 81° 101° (ESE) 22:44:33 435.000
VELOX 1 22 Feb 22:47:45 22:51:19 25° 66° (ENE) 22:54:53 145.980
DX 1 22 Feb 22:51:04 22:52:59 13° 60° (ENE) 22:54:53 434.975-435.025
POLYITAN 1 22 Feb 22:52:55 22:54:30 12° 89° (E) 22:56:04 437.675
QB50P2 22 Feb 22:55:14 22:57:24 14° 90° (E) 22:59:33 145.880/145.840
NANOSAT C BR1 22 Feb 22:55:28 22:56:48 11° 89° (E) 22:58:08 145.865
AIST 2D 22 Feb 22:56:04 22:58:37 18° 93° (E) 23:01:09 435.315
FO-29 22 Feb 22:56:31 23:04:16 64° 100° (E) 23:11:17 435.910
O/OREOS (USA 219) 22 Feb 22:56:32 23:00:32 33° 105° (ESE) 23:04:35 437.305
UKube-1 22 Feb 23:08:45 23:11:00 14° 61° (ENE) 23:13:15 .
SPROUT 22 Feb 23:17:30 23:21:26 38° 70° (ENE) 23:25:24 437.525
PRISM 22 Feb 23:20:13 23:22:12 13° 298° (WNW) 23:24:11 437.425
YUBILEINY 22 Feb 23:20:34 23:28:20 38° 275° (W) 23:36:03 435.215
BUGSAT 1 22 Feb 23:38:54 23:39:44 10° 89° (E) 23:40:35 437.445
SO-50 22 Feb 23:43:41 23:48:19 60° 307° (NW) 23:52:54 436.795
ESTCUBE 1 22 Feb 23:45:46 23:49:43 29° 264° (W) 23:53:40 437.505/2401.250
50 SAT 22 Feb 23:59:34 00:03:04 76° 258° (WSW) 00:06:35 437.505
DUCHIFAT 1 23 Feb 00:02:29 00:06:42 56° 100° (E) 00:10:53 145.980
EO-79 23 Feb 00:09:47 00:14:06 82° 103° (ESE) 00:18:23 145.935-145.965
UNISAT 6 23 Feb 00:12:46 00:14:37 12° 301° (WNW) 00:16:30 437.425
TIGRISAT 23 Feb 00:13:49 00:15:52 13° 300° (WNW) 00:17:55 435.000
VELOX 1 23 Feb 00:23:41 00:27:37 32° 263° (W) 00:31:36 145.980
DX 1 23 Feb 00:24:17 00:28:35 70° 258° (WSW) 00:32:55 434.975-435.025
RS-15 23 Feb 00:25:30 00:36:22 33° 24° (NNE) 00:46:57 29.354- 29.394
POLYITAN 1 23 Feb 00:26:26 00:30:43 65° 286° (WNW) 00:34:58 437.675
NANOSAT C BR1 23 Feb 00:28:42 00:32:58 67° 286° (WNW) 00:37:11 145.865
AIST 2D 23 Feb 00:28:48 00:31:52 27° 290° (WNW) 00:34:56 435.315
QB50P2 23 Feb 00:29:19 00:33:32 56° 287° (WNW) 00:37:44 145.880/145.840
PCSat 23 Feb 00:32:33 00:36:34 20° 42° (NE) 00:40:33 145.827
O/OREOS (USA 219) 23 Feb 00:36:12 00:39:58 26° 303° (WNW) 00:43:46 437.305
FO-29 23 Feb 00:42:11 00:48:39 30° 300° (WNW) 00:54:44 435.910
UKube-1 23 Feb 00:42:17 00:46:32 61° 258° (WSW) 00:50:48 .
SPROUT 23 Feb 00:54:24 00:57:29 19° 267° (W) 01:00:36 437.525
BUGSAT 1 23 Feb 01:11:19 01:15:33 71° 285° (WNW) 01:19:46 437.445
ITUPSAT 1 23 Feb 01:14:14 01:17:56 23° 64° (ENE) 01:21:39 437.325
BEESAT 23 Feb 01:22:25 01:26:24 27° 66° (ENE) 01:30:24 436.000
SO-50 23 Feb 01:27:44 01:29:43 12° 328° (NNW) 01:31:43 436.795
Oscar 19 23 Feb 01:33:42 01:38:42 50° 100° (E) 01:43:39 437.125/150
DUCHIFAT 1 23 Feb 01:39:32 01:41:55 15° 297° (WNW) 01:44:17 145.980
EO-79 23 Feb 01:48:12 01:49:12 11° 300° (WNW) 01:50:12 145.935-145.965
Gurwin Techsat 1B 23 Feb 01:55:56 02:01:04 46° 99° (E) 02:06:09 435.225
AO-7 23 Feb 02:04:32 02:05:55 10° 85° (E) 02:07:18 .
MOZHAYETS 4 23 Feb 02:08:18 02:12:09 26° 67° (ENE) 02:16:01
PCSat 23 Feb 02:15:08 02:20:36 79° 242° (WSW) 02:26:00 145.827
RS-15 23 Feb 02:38:52 02:51:18 77° 53° (NE) 03:03:12 29.354- 29.394
ITUPSAT 1 23 Feb 02:50:54 02:55:29 44° 261° (W) 03:00:05 437.325
BEESAT 23 Feb 02:59:39 03:04:01 35° 263° (W) 03:08:26 436.000
KKS-1 23 Feb 02:59:44 03:03:16 24° 66° (ENE) 03:06:49 437.445
CUBESAT XI-V 23 Feb 03:01:24 03:04:14 16° 62° (ENE) 03:07:02 437.345
Oscar 19 23 Feb 03:13:49 03:17:40 22° 297° (WNW) 03:21:30 437.125/150
M-CUBED/EXP-1 PRIME 23 Feb 03:30:13 03:32:13 15° 61° (ENE) 03:34:13 437.505
Gurwin Techsat 1B 23 Feb 03:36:26 03:40:44 25° 296° (WNW) 03:45:01 435.225
ITAMSAT 1 23 Feb 03:40:21 03:45:37 77° 104° (ESE) 03:50:50 435.822/435.867
STARS 23 Feb 03:41:12 03:44:57 29° 67° (ENE) 03:48:44 437.465
MOZHAYETS 4 23 Feb 03:44:57 03:49:10 34° 263° (W) 03:53:25
AO-85 23 Feb 03:49:35 03:51:02 11° 109° (ESE) 03:52:27 145.980
AO-7 23 Feb 03:52:04 04:00:20 62° 104° (ESE) 04:08:30 .
PCSat 23 Feb 04:02:06 04:03:03 10° 259° (W) 04:03:59 145.827
KKS-1 23 Feb 04:35:38 04:39:39 34° 263° (W) 04:43:42 437.445
CUBESAT XI-V 23 Feb 04:36:30 04:41:07 61° 259° (W) 04:45:44 437.345
RS-15 23 Feb 04:52:26 05:02:40 33° 256° (WSW) 05:12:34 29.354- 29.394
M-CUBED/EXP-1 PRIME 23 Feb 05:03:34 05:06:31 30° 257° (WSW) 05:09:27 437.505
STARS 23 Feb 05:17:32 05:21:15 27° 264° (W) 05:25:00 437.465
ITAMSAT 1 23 Feb 05:21:23 05:24:26 16° 301° (WNW) 05:27:28 435.822/435.867
AO-85 23 Feb 05:26:22 05:30:55 81° 304° (NW) 05:35:10 145.980
STRAND 1 23 Feb 05:35:44 05:39:22 20° 62° (ENE) 05:43:01 437.568
AO-7 23 Feb 05:45:28 05:52:38 34° 304° (WNW) 05:59:47 .
CUTE-I 23 Feb 06:08:44 06:13:42 37° 97° (E) 06:18:38 437.470
KAITUO 1B 23 Feb 06:19:25 06:23:01 41° 98° (E) 06:26:35 145.475/437.950
XW-2F 23 Feb 06:19:41 06:23:25 50° 99° (E) 06:27:06 145.980 - 146.000
DOVE 4 23 Feb 06:22:08 06:26:45 63° 102° (ESE) 06:31:37 437.250
XW-2D 23 Feb 06:22:40 06:26:28 58° 100° (E) 06:30:13 145.860 - 145.880
XW-2B 23 Feb 06:27:38 06:31:28 65° 101° (E) 06:35:14 145.730 - 145.750
BEESAT 3 23 Feb 06:32:28 06:35:50 28° 115° (ESE) 06:39:15 437.485
SO-50 23 Feb 06:34:10 06:37:50 24° 42° (NE) 06:41:28 436.795
XW-2C 23 Feb 06:36:08 06:40:00 85° 103° (ESE) 06:43:48 145.795 - 145.815
LilacSat-2 23 Feb 06:50:14 06:54:04 62° 285° (WNW) 06:57:51 437.200
NUDT-PHONESAT 23 Feb 06:57:28 07:01:14 64° 285° (WNW) 07:04:56 437.300
BEESAT 2 23 Feb 07:05:02 07:08:21 26° 114° (ESE) 07:11:44 435.950
AO-85 23 Feb 07:09:50 07:11:56 13° 323° (NW) 07:13:59 145.980
HO-68 23 Feb 07:12:56 07:19:16 33° 96° (E) 07:25:33 435.675
STRAND 1 23 Feb 07:13:03 07:18:06 58° 259° (W) 07:23:12 437.568
XW-2A 23 Feb 07:17:52 07:21:08 37° 98° (E) 07:24:22 145.665 - 145.685
SEEDS 23 Feb 07:26:08 07:29:23 22° 93° (E) 07:32:36 437.485
O/OREOS (USA 219) 23 Feb 07:27:57 07:29:15 11° 47° (NE) 07:30:32 437.305
CUTE-I 23 Feb 07:48:57 07:53:38 31° 294° (WNW) 07:58:18 437.470
CUBEBUG 2 23 Feb 07:50:45 07:54:58 30° 95° (E) 07:59:08 437.445
KAITUO 1B 23 Feb 07:54:30 07:56:43 15° 295° (WNW) 07:58:54 145.475/437.950
XW-2F 23 Feb 07:55:19 07:57:09 13° 296° (WNW) 07:58:58 145.980 - 146.000
XW-2D 23 Feb 07:58:47 08:00:10 12° 297° (WNW) 08:01:32 145.860 - 145.880
CUTE 1.7 + AOD 2 23 Feb 07:58:52 08:03:06 77° 102° (ESE) 08:07:18 437.475
DOVE 4 23 Feb 08:01:15 08:04:01 16° 296° (WNW) 08:06:52 437.250
XW-2B 23 Feb 08:04:15 08:05:06 11° 298° (WNW) 08:05:58 145.730 - 145.750
ISS 23 Feb 08:08:29 08:10:32 16° 133° (SE) 08:12:35 437.550
BEESAT 3 23 Feb 08:09:57 08:13:23 29° 313° (NW) 08:16:53 437.485
SO-50 23 Feb 08:14:11 08:18:32 49° 241° (WSW) 08:22:51 436.795
AO-73 23 Feb 08:14:58 08:18:08 18° 91° (E) 08:21:15 145.935
Oscar 11 23 Feb 08:24:53 08:28:00 19° 92° (E) 08:31:06 .
UWE-3 23 Feb 08:33:18 08:37:54 52° 99° (E) 08:42:24 435.000/436.395/437.385
PRISM 23 Feb 08:33:22 08:37:17 46° 72° (ENE) 08:41:12 437.425
Tancredo 1 23 Feb 08:39:07 08:42:01 30° 138° (SE) 08:44:57 437.200
BEESAT 2 23 Feb 08:42:29 08:46:02 31° 313° (NW) 08:49:39 435.950
XW-2A 23 Feb 08:51:46 08:53:34 14° 295° (WNW) 08:55:24 145.665 - 145.685
AAUSAT CUBESAT 2 23 Feb 08:57:48 09:01:54 70° 285° (WNW) 09:05:58 437.432
ZACube-1 23 Feb 09:00:06 09:04:39 59° 100° (E) 09:09:06 437.345
HO-68 23 Feb 09:00:21 09:07:12 51° 294° (WNW) 09:14:02 435.675
SEEDS 23 Feb 09:01:23 09:05:08 32° 290° (WNW) 09:08:50 437.485
O/OREOS (USA 219) 23 Feb 09:04:51 09:09:27 79° 68° (ENE) 09:14:02 437.305
FO-29 23 Feb 09:08:57 09:15:15 35° 62° (ENE) 09:22:01 435.910
DELFI C3 23 Feb 09:18:08 09:21:12 22° 94° (E) 09:24:15 145.870
CUBEBUG 2 23 Feb 09:27:20 09:31:30 31° 292° (WNW) 09:35:38 437.445
UNISAT 6 23 Feb 09:33:17 09:37:45 82° 74° (ENE) 09:42:22 437.425
TIGRISAT 23 Feb 09:34:21 09:38:48 78° 77° (ENE) 09:43:26 435.000
CUTE 1.7 + AOD 2 23 Feb 09:37:12 09:38:18 11° 299° (WNW) 09:39:24 437.475
ISS 23 Feb 09:43:21 09:46:38 71° 329° (NNW) 09:49:56 437.550
POLYITAN 1 23 Feb 09:47:21 09:48:35 11° 60° (ENE) 09:49:48 437.675
QB50P2 23 Feb 09:49:32 09:51:22 13° 61° (ENE) 09:53:13 145.880/145.840
NANOSAT C BR1 23 Feb 09:49:34 09:50:25 11° 60° (ENE) 09:51:17 145.865
AO-73 23 Feb 09:50:14 09:54:36 46° 288° (WNW) 09:58:54 145.935
Oscar 11 23 Feb 10:00:15 10:04:17 40° 289° (WNW) 10:08:19 .
PRISM 23 Feb 10:10:28 10:12:49 15° 268° (W) 10:15:10 437.425
UWE-3 23 Feb 10:10:43 10:13:56 19° 296° (WNW) 10:17:08 435.000/436.395/437.385
Tancredo 1 23 Feb 10:15:10 10:18:16 39° 336° (NNW) 10:21:21 437.200
YUBILEINY 23 Feb 10:25:10 10:33:40 55° 90° (E) 10:42:10 435.215
ZACube-1 23 Feb 10:37:39 10:40:26 16° 297° (WNW) 10:43:10 437.345
O/OREOS (USA 219) 23 Feb 10:47:10 10:48:09 11° 263° (W) 10:49:07 437.305
HO-68 23 Feb 10:51:46 10:53:17 11° 315° (NW) 10:54:48 435.675
DELFI C3 23 Feb 10:52:36 10:56:01 29° 290° (WNW) 10:59:25 145.870
FO-29 23 Feb 10:53:02 10:59:52 54° 262° (W) 11:07:24 435.910
DUCHIFAT 1 23 Feb 10:54:59 10:59:00 46° 72° (ENE) 11:03:03 145.980
EO-79 23 Feb 11:02:46 11:06:57 68° 74° (ENE) 11:11:11 145.935-145.965
AIST 2D 23 Feb 11:03:24 11:06:56 67° 259° (W) 11:10:31 435.315
TIGRISAT 23 Feb 11:15:09 11:16:06 11° 273° (W) 11:17:03 435.000
Oscar 19 23 Feb 11:16:16 11:18:05 12° 57° (ENE) 11:19:56 437.125/150
POLYITAN 1 23 Feb 11:19:29 11:23:42 78° 256° (WSW) 11:28:00 437.675
ISS 23 Feb 11:20:53 11:23:32 22° 348° (NNW) 11:26:11 437.550
NANOSAT C BR1 23 Feb 11:21:16 11:25:28 81° 256° (WSW) 11:29:44 145.865
QB50P2 23 Feb 11:22:23 11:26:36 67° 258° (WSW) 11:30:51 145.880/145.840
ESTCUBE 1 23 Feb 11:36:22 11:40:46 52° 100° (E) 11:45:07 437.505/2401.250
Gurwin Techsat 1B 23 Feb 11:42:13 11:44:11 12° 56° (NE) 11:46:10 435.225
Tancredo 1 23 Feb 11:52:46 11:55:10 19° 355° (N) 11:57:34 437.200
BUGSAT 1 23 Feb 12:01:36 12:05:39 89° 57° (ENE) 12:09:46 437.445
VELOX 1 23 Feb 12:12:01 12:16:13 41° 99° (E) 12:20:23 145.980
DX 1 23 Feb 12:12:11 12:15:12 18° 93° (E) 12:18:15 434.975-435.025
AO-85 23 Feb 12:17:33 12:19:49 15° 39° (NE) 12:22:05 145.980
YUBILEINY 23 Feb 12:22:57 12:30:49 35° 291° (WNW) 12:38:42 435.215
UKube-1 23 Feb 12:28:53 12:32:03 20° 94° (E) 12:35:13 .
DUCHIFAT 1 23 Feb 12:32:20 12:34:55 16° 268° (W) 12:37:31 145.980
SPROUT 23 Feb 12:37:28 12:41:46 65° 102° (ESE) 12:46:03 437.525
EO-79 23 Feb 12:42:05 12:43:10 11° 271° (W) 12:44:16 145.935-145.965
Oscar 19 23 Feb 12:51:25 12:56:35 82° 74° (ENE) 13:01:45 437.125/150
50 SAT 23 Feb 12:56:25 12:59:53 80° 284° (WNW) 13:03:21 437.505
ISS 23 Feb 12:58:15 13:00:49 20° 9° (N) 13:03:22 437.550
AO-7 23 Feb 13:02:26 13:08:30 23° 50° (NE) 13:14:32 .
ESTCUBE 1 23 Feb 13:14:17 13:17:10 17° 297° (WNW) 13:20:02 437.505/2401.250
Gurwin Techsat 1B 23 Feb 13:17:58 13:23:16 80° 74° (ENE) 13:28:36 435.225
ITAMSAT 1 23 Feb 13:22:06 13:25:37 19° 60° (ENE) 13:29:08 435.822/435.867
Tancredo 1 23 Feb 13:29:31 13:32:14 24° 15° (NNE) 13:34:57 437.200
DX 1 23 Feb 13:47:28 13:51:35 42° 289° (WNW) 13:55:42 434.975-435.025
VELOX 1 23 Feb 13:49:08 13:52:24 20° 295° (WNW) 13:55:39 145.980
AO-85 23 Feb 13:56:46 14:00:40 71° 237° (WSW) 14:04:36 145.980
UKube-1 23 Feb 14:04:12 14:08:13 39° 290° (WNW) 14:12:13 .
SPROUT 23 Feb 14:15:05 14:17:09 13° 298° (WNW) 14:19:13 437.525
Oscar 19 23 Feb 14:34:25 14:36:31 12° 272° (W) 14:38:37 437.125/150
ISS 23 Feb 14:34:34 14:37:48 53° 28° (NNE) 14:41:01 437.550
BEESAT 3 23 Feb 14:48:00 14:51:26 27° 46° (NE) 14:54:53 437.485
ITUPSAT 1 23 Feb 14:50:04 14:54:39 43° 99° (E) 14:59:12 437.325
AO-7 23 Feb 14:51:48 15:00:11 88° 70° (ENE) 15:08:36 .
BEESAT 23 Feb 14:58:06 15:02:48 53° 101° (E) 15:07:27 436.000
ITAMSAT 1 23 Feb 14:59:25 15:04:34 64° 258° (WSW) 15:09:47 435.822/435.867
Gurwin Techsat 1B 23 Feb 15:01:19 15:03:50 13° 271° (W) 15:06:20 435.225
Tancredo 1 23 Feb 15:05:36 15:08:50 82° 215° (SW) 15:12:02 437.200
PCSat 23 Feb 15:19:21 15:20:21 10° 101° (E) 15:21:21 145.827
BEESAT 2 23 Feb 15:21:21 15:24:48 26° 46° (NE) 15:28:12 435.950
MOZHAYETS 4 23 Feb 15:38:20 15:42:51 51° 99° (E) 15:47:18
CUTE-I 23 Feb 15:57:28 15:57:41 10° 54° (NE) 15:57:55 437.470
ISS 23 Feb 16:11:29 16:14:02 21° 225° (SW) 16:16:35 437.550
KKS-1 23 Feb 16:24:57 16:29:10 39° 98° (E) 16:33:22 437.445
BEESAT 3 23 Feb 16:25:27 16:29:05 32° 244° (WSW) 16:32:40 437.485
ITUPSAT 1 23 Feb 16:28:29 16:32:12 23° 296° (WNW) 16:35:54 437.325
CUBESAT XI-V 23 Feb 16:32:10 16:36:13 30° 95° (E) 16:40:14 437.345
BEESAT 23 Feb 16:36:50 16:40:10 19° 298° (WNW) 16:43:29 436.000
M-CUBED/EXP-1 PRIME 23 Feb 16:41:51 16:42:48 11° 97° (E) 16:43:45 437.505
Tancredo 1 23 Feb 16:44:25 16:44:36 10° 230° (SW) 16:44:47 437.200
AO-7 23 Feb 16:48:09 16:53:55 20° 269° (W) 16:59:43 .
PCSat 23 Feb 16:57:24 17:02:48 79° 119° (ESE) 17:08:16 145.827
BEESAT 2 23 Feb 16:58:56 17:02:38 35° 244° (WSW) 17:06:19 435.950
KAITUO 1B 23 Feb 17:00:44 17:03:48 23° 68° (ENE) 17:06:52 145.475/437.950
XW-2F 23 Feb 17:01:41 17:04:58 28° 70° (ENE) 17:08:18 145.980 - 146.000
RS-15 23 Feb 17:03:04 17:13:56 44° 108° (ESE) 17:25:10 29.354- 29.394
XW-2D 23 Feb 17:04:52 17:08:18 32° 70° (ENE) 17:11:46 145.860 - 145.880
STARS 23 Feb 17:04:53 17:09:10 47° 100° (E) 17:13:27 437.465
XW-2B 23 Feb 17:09:46 17:13:17 35° 71° (ENE) 17:16:50 145.730 - 145.750
MOZHAYETS 4 23 Feb 17:16:29 17:19:36 18° 297° (WNW) 17:22:43
XW-2C 23 Feb 17:18:07 17:21:48 45° 73° (ENE) 17:25:31 145.795 - 145.815
DOVE 4 23 Feb 17:29:02 17:33:09 67° 74° (ENE) 17:37:17 437.250
CUTE-I 23 Feb 17:31:26 17:36:42 66° 72° (ENE) 17:42:01 437.470
LilacSat-2 23 Feb 17:32:32 17:36:23 72° 76° (ENE) 17:40:17 437.200
NUDT-PHONESAT 23 Feb 17:37:27 17:41:10 63° 74° (ENE) 17:44:55 437.300
HO-68 23 Feb 17:43:12 17:49:07 29° 59° (ENE) 17:55:01 435.675
XW-2A 23 Feb 17:51:15 17:53:23 16° 67° (ENE) 17:55:31 145.665 - 145.685
KKS-1 23 Feb 18:02:04 18:05:28 22° 295° (WNW) 18:08:52 437.445
CUBESAT XI-V 23 Feb 18:09:35 18:13:31 29° 292° (WNW) 18:17:27 437.345
M-CUBED/EXP-1 PRIME 23 Feb 18:13:51 18:17:30 61° 291° (WNW) 18:21:27 437.505
SEEDS 23 Feb 18:19:06 18:22:02 18° 65° (ENE) 18:24:58 437.485
KAITUO 1B 23 Feb 18:34:31 18:37:43 26° 265° (W) 18:40:57 145.475/437.950
XW-2F 23 Feb 18:36:09 18:39:08 21° 266° (W) 18:42:08 145.980 - 146.000
XW-2D 23 Feb 18:39:48 18:42:34 19° 267° (W) 18:45:21 145.860 - 145.880
STARS 23 Feb 18:42:07 18:45:10 18° 296° (WNW) 18:48:12 437.465
PCSat 23 Feb 18:42:53 18:46:51 20° 319° (NW) 18:50:50 145.827
XW-2B 23 Feb 18:45:02 18:47:36 17° 268° (W) 18:50:11 145.730 - 145.750
CUBEBUG 2 23 Feb 18:49:52 18:53:36 27° 67° (ENE) 18:57:27 437.445
CUTE 1.7 + AOD 2 23 Feb 18:52:00 18:56:13 61° 75° (ENE) 19:00:27 437.475
XW-2C 23 Feb 18:54:16 18:56:14 14° 269° (W) 18:58:14 145.795 - 145.815
DOVE 4 23 Feb 19:11:06 19:11:21 10° 272° (W) 19:11:35 437.250
AO-73 23 Feb 19:11:42 19:14:34 17° 63° (ENE) 19:17:30 145.935
CUTE-I 23 Feb 19:13:54 19:17:14 17° 270° (W) 19:20:35 437.470
RS-15 23 Feb 19:14:04 19:25:59 64° 312° (NW) 19:38:20 29.354- 29.394
Oscar 11 23 Feb 19:20:55 19:23:52 18° 64° (ENE) 19:26:49 .
STRAND 1 23 Feb 19:22:26 19:27:23 44° 99° (E) 19:32:17 437.568
XW-2A 23 Feb 19:22:53 19:25:55 30° 263° (W) 19:28:59 145.665 - 145.685
HO-68 23 Feb 19:29:16 19:36:21 62° 257° (WSW) 19:43:29 435.675
UWE-3 23 Feb 19:30:55 19:35:09 45° 71° (ENE) 19:39:31 435.000/436.395/437.385
AAUSAT CUBESAT 2 23 Feb 19:48:19 19:52:29 84° 74° (ENE) 19:56:39 437.432
SEEDS 23 Feb 19:53:23 19:57:25 42° 262° (W) 20:01:27 437.485
ZACube-1 23 Feb 19:56:24 20:00:41 50° 72° (ENE) 20:05:06 437.345
DELFI C3 23 Feb 20:05:21 20:07:45 16° 65° (ENE) 20:10:08 145.870
CUBEBUG 2 23 Feb 20:26:13 20:30:07 30° 265° (W) 20:34:09 437.445
CUTE 1.7 + AOD 2 23 Feb 20:30:36 20:32:26 12° 270° (W) 20:34:17 437.475
YUBILEINY 23 Feb 20:34:20 20:41:40 29° 66° (ENE) 20:48:53 435.215
AO-73 23 Feb 20:46:02 20:50:22 53° 261° (W) 20:54:49 145.935
